Weather History for Valentine, NE

Change the Weather History Date:

Tuesday, February 25, 2014

  Actual Average Record
Temperature  
Mean Temperature 2 °F 30 °F  
Max Temperature 13 °F 43 °F 73 °F (1995)
Min Temperature -9 °F 17 °F -19 °F (1934)
Degree Days  
Heating Degree Days 63 35  
Month to date heating degree days 1128 953  
Since 1 July heating degree days 5328 5131  
Cooling Degree Days 0 0  
Month to date cooling degree days 0 0  
Year to date cooling degree days 0 0  
Moisture  
Dew Point -1 °F    
Average Humidity 70    
Maximum Humidity 87    
Minimum Humidity 53    
Precipitation  
Precipitation 0.07 in 0.02 in 0.95 in (1944)
Month to date precipitation 0.60 0.41  
Year to date precipitation 0.64 0.67  
Snow  
Snow 1.00 in 0.20 in 9.00 in (1944)
Month to date snowfall 6.5 4.9  
Since 1 July snowfall 26.0 21.4  
Snow Depth T in    
Sea Level Pressure  
Sea Level Pressure 30.48 in    
Wind  
Wind Speed 8 mph (NW)    
Max Wind Speed 20 mph    
Max Gust Speed 24 mph    
Visibility 6 miles    
Events Snow    
T = Trace of Precipitation, MM = Missing Value Source: NWS Daily Summary

Daily Weather History Graph

Daily Weather History Graph

Search for Another Location

Airport:

Trip Planner

Search our weather history database for the weather conditions in past years. The results will help you decide how hot, cold, wet, or windy it might be!

Date:

Astronomy

Feb. 25, 2014 Rise Set
Actual Time 7:24 AM CST 6:26 PM CST
Civil Twilight 6:55 AM CST 6:55 PM CST
Nautical Twilight 6:23 AM CST 7:28 PM CST
Astronomical Twilight 5:50 AM CST 8:00 PM CST
Moon 4:24 AM CST (2/25) 2:30 PM CST (2/25)
Length of Visible Light 11h 59m
Length of Day
11h 02m
Waning Crescent, 18% of the Moon is Illuminated
Feb 25
Waning Crescent
Mar 1
New
Mar 8
First Quarter
Mar 16
Full
Mar 23
Last Quarter

Hourly Weather History & Observations

Time (CST) Temp. Windchill Dew Point Humidity Pressure Visibility Wind Dir Wind Speed Gust Speed Precip Events Conditions
12:52 AM 1.9 °F -5.6 °F -4.0 °F 76% 30.52 in 10.0 mi WSW 3.5 mph - N/A   Clear
1:52 AM 3.9 °F -6.9 °F -2.9 °F 73% 30.51 in 10.0 mi West 5.8 mph - N/A   Mostly Cloudy
2:52 AM 5.0 °F -9.1 °F -2.0 °F 73% 30.49 in 10.0 mi West 9.2 mph - N/A   Mostly Cloudy
3:52 AM 6.1 °F -5.6 °F -2.0 °F 69% 30.47 in 10.0 mi West 6.9 mph - N/A   Overcast
4:52 AM 7.0 °F -3.3 °F -0.9 °F 70% 30.46 in 10.0 mi West 5.8 mph - N/A   Overcast
5:52 AM 7.0 °F -3.3 °F -0.0 °F 73% 30.47 in 10.0 mi NW 5.8 mph - N/A   Overcast
6:52 AM 7.0 °F -4.5 °F -0.0 °F 73% 30.46 in 10.0 mi North 6.9 mph - N/A   Overcast
7:49 AM 7.0 °F -4.5 °F -0.0 °F 73% 30.47 in 1.8 mi North 6.9 mph - 0.00 in Snow Light Snow
7:56 AM 6.8 °F -5.9 °F -0.4 °F 72% 30.30 in 1.2 mi North 8.1 mph - 0.01 in Snow Light Snow
8:09 AM 6.8 °F -2.0 °F 1.4 °F 79% 30.31 in 1.0 mi NNW 4.6 mph - 0.01 in Snow Light Snow
8:20 AM 6.8 °F -4.8 °F 1.4 °F 79% 30.31 in 1.2 mi North 6.9 mph - 0.01 in Snow Light Snow
8:44 AM 6.8 °F -5.9 °F 1.4 °F 79% 30.32 in 1.0 mi NNW 8.1 mph - 0.02 in Snow Light Snow
8:52 AM 6.1 °F -7.8 °F 1.0 °F 80% 30.50 in 1.0 mi NNW 9.2 mph - 0.03 in Snow Light Snow
9:00 AM 6.8 °F -7.8 °F 1.4 °F 79% 30.33 in 1.2 mi North 10.4 mph - 0.00 in Snow Light Snow
9:12 AM 6.8 °F -6.9 °F -0.4 °F 72% 30.33 in 1.0 mi North 9.2 mph - 0.01 in Snow Light Snow
9:35 AM 6.8 °F -7.8 °F 1.4 °F 79% 30.35 in 1.2 mi NNW 10.4 mph - 0.02 in Snow Light Snow
9:52 AM 7.0 °F -7.5 °F -0.0 °F 73% 30.53 in 1.5 mi NNW 10.4 mph - 0.03 in Snow Light Snow
10:07 AM 6.8 °F -7.8 °F -0.4 °F 72% 30.35 in 2.5 mi NNW 10.4 mph - 0.00 in Snow Light Snow
10:15 AM 6.8 °F -9.3 °F -0.4 °F 72% 30.35 in 4.0 mi North 12.7 mph - 0.00 in Snow Light Snow
10:48 AM 6.8 °F -6.9 °F -2.2 °F 67% 30.36 in 1.8 mi North 9.2 mph - 0.00 in Snow Light Snow
10:52 AM 7.0 °F -6.6 °F -0.9 °F 70% 30.55 in 1.5 mi North 9.2 mph - 0.01 in Snow Light Snow
11:00 AM 8.6 °F -6.3 °F -2.2 °F 62% 30.36 in 3.0 mi NNW 11.5 mph - 0.00 in Snow Light Snow
11:52 AM 9.0 °F -5.1 °F -2.0 °F 61% 30.56 in 10.0 mi NW 10.4 mph - 0.00 in   Overcast
12:52 PM 10.9 °F -2.6 °F -2.9 °F 54% 30.56 in 10.0 mi NNW 10.4 mph - N/A   Mostly Cloudy
1:52 PM 10.9 °F -2.6 °F -2.9 °F 54% 30.53 in 10.0 mi NNW 10.4 mph - N/A   Mostly Cloudy
2:52 PM 12.0 °F -0.4 °F -2.9 °F 51% 30.52 in 10.0 mi NNW 9.2 mph - N/A   Clear
3:52 PM 12.0 °F -2.0 °F -2.0 °F 53% 30.52 in 10.0 mi NW 11.5 mph - N/A   Clear
4:52 PM 10.9 °F -4.7 °F -2.0 °F 56% 30.54 in 10.0 mi NW 13.8 mph 20.7 mph N/A   Mostly Cloudy
5:52 PM 10.9 °F -4.1 °F 1.0 °F 64% 30.56 in 5.0 mi NW 12.7 mph - N/A   Haze
6:52 PM 10.9 °F -4.1 °F -0.0 °F 61% 30.57 in 10.0 mi NW 12.7 mph - 0.00 in   Overcast
7:52 PM 8.1 °F -5.3 °F -0.9 °F 67% 30.59 in 10.0 mi NW 9.2 mph - N/A   Scattered Clouds
8:52 PM 6.1 °F -4.3 °F -0.9 °F 73% 30.60 in 10.0 mi WNW 5.8 mph - N/A   Overcast
9:52 PM 3.9 °F -3.4 °F -2.0 °F 76% 30.59 in 10.0 mi WNW 3.5 mph - N/A   Partly Cloudy
10:52 PM -4.0 °F -12.4 °F -8.0 °F 83% 30.59 in 10.0 mi WNW 3.5 mph - N/A   Clear
11:52 PM -5.1 °F -17.6 °F -9.0 °F 83% 30.57 in 10.0 mi WNW 5.8 mph - N/A   Clear